{"data":{"norad_id":57147,"intl_designator":"2023-090AY","name":"STARLINK-5765","alt_names":[],"object_type":"PAYLOAD","status":"ACTIVE","operator":null,"country":"US","launch_date":"2023-06-23","launch_site_code":"AFETR","launch_vehicle":null,"mission":null,"orbit_class":"UNKNOWN","rcs_meters":null,"size_class":null,"mass_kg":null,"dimensions":null,"purposes":["comms"],"wikipedia_slug":null,"has_3d_model":false,"image_url":null,"decayed_at":null,"tle_current":{"epoch":"2026-05-25T03:35:11.054400Z","epoch_age_seconds":76290,"freshness":"FRESH","line1":"1 57147U 23090AY  26145.14943350  .00001240  00000+0  54580-4 0  9997","line2":"2 57147  43.0007 191.8064 0001217 272.6302  87.4410 15.27579673162232","mean_motion":15.27579673,"eccentricity":0.0001217,"inclination_deg":43.0007,"raan_deg":191.8064,"arg_perigee_deg":272.6302,"mean_anomaly_deg":87.441,"bstar":5.458e-5,"rev_number":16223,"period_min":94.26676889278,"perigee_km":482.21506872841,"apogee_km":483.88508166252,"semimajor_km":6861.1870751955,"source":"CELESTRAK","updated_at":"2026-05-25T13:38:18.249153Z"}}}